NKS2805 KATL-KFLL

Flight info

Callsign NKS2805
Flight time N/A
Altitude 39000
Route SMLTZ3 WALET ZPLEN TEEKY4
Aircraft A20N/M-SDE2E3FGHIRWXY/LB1

Departure

Time 2026-05-03 22:46
Airport Hartsfield Jackson Atlanta International Airport (KATL)

Arrival

Time N/A
Airport Fort Lauderdale Hollywood International Airport (KFLL)
Time Latitude Longitude Altitude Speed Heading
2026-05-03 22:17 33.64117 -84.42889 1006 ft 0 kts 282°
2026-05-03 22:34 33.64116 -84.42887 1006 ft 0 kts 282°
2026-05-03 22:34 33.64116 -84.42885 1006 ft 0 kts 282°
2026-05-03 22:34 33.64116 -84.42884 1006 ft 1 kts 282°
2026-05-03 22:35 33.64116 -84.42882 1006 ft 0 kts 282°
2026-05-03 22:35 33.64114 -84.42873 1006 ft 2 kts 282°
2026-05-03 22:35 33.64111 -84.42859 1006 ft 2 kts 281°
2026-05-03 22:35 33.64110 -84.42843 1006 ft 2 kts 258°
2026-05-03 22:36 33.64115 -84.42826 1006 ft 2 kts 233°
2026-05-03 22:36 33.64126 -84.42813 1006 ft 2 kts 212°
2026-05-03 22:36 33.64139 -84.42806 1006 ft 2 kts 183°
2026-05-03 22:36 33.64141 -84.42806 1006 ft 0 kts 179°
2026-05-03 22:38 33.64140 -84.42806 1006 ft 1 kts 179°
2026-05-03 22:39 33.64125 -84.42805 1006 ft 4 kts 179°
2026-05-03 22:39 33.64088 -84.42805 1006 ft 7 kts 179°
2026-05-03 22:39 33.64031 -84.42804 1006 ft 9 kts 180°
2026-05-03 22:39 33.63957 -84.42804 1006 ft 12 kts 180°
2026-05-03 22:40 33.63867 -84.42805 1006 ft 14 kts 181°
2026-05-03 22:40 33.63762 -84.42806 1006 ft 16 kts 180°
2026-05-03 22:40 33.63666 -84.42778 1006 ft 12 kts 121°
2026-05-03 22:40 33.63655 -84.42668 1006 ft 15 kts 91°
2026-05-03 22:41 33.63655 -84.42536 1006 ft 17 kts 90°
2026-05-03 22:41 33.63655 -84.42391 1006 ft 18 kts 90°
2026-05-03 22:41 33.63655 -84.42236 1006 ft 20 kts 90°
2026-05-03 22:41 33.63655 -84.42067 1006 ft 21 kts 90°
2026-05-03 22:42 33.63655 -84.41913 1006 ft 15 kts 90°
2026-05-03 22:42 33.63655 -84.41810 1006 ft 13 kts 90°
2026-05-03 22:42 33.63655 -84.41690 1006 ft 15 kts 90°
2026-05-03 22:42 33.63656 -84.41555 1006 ft 17 kts 90°
2026-05-03 22:43 33.63655 -84.41403 1005 ft 19 kts 90°
2026-05-03 22:43 33.63656 -84.41233 1006 ft 21 kts 89°
2026-05-03 22:43 33.63656 -84.41073 1006 ft 14 kts 90°
2026-05-03 22:43 33.63656 -84.40968 1006 ft 12 kts 90°
2026-05-03 22:44 33.63612 -84.40902 1006 ft 10 kts 180°
2026-05-03 22:44 33.63574 -84.40904 1006 ft 0 kts 182°
2026-05-03 22:44 33.63562 -84.40905 1006 ft 3 kts 182°
2026-05-03 22:44 33.63502 -84.40913 1007 ft 15 kts 197°
2026-05-03 22:45 33.63470 -84.40973 1006 ft 0 kts 269°
2026-05-03 22:45 33.63470 -84.41006 1006 ft 23 kts 269°
2026-05-03 22:46 33.63471 -84.41470 1006 ft 86 kts 270°
2026-05-03 22:46 33.63471 -84.42394 1007 ft 134 kts 270°
2026-05-03 22:46 33.63468 -84.43655 1147 ft 159 kts 270°
2026-05-03 22:46 33.63446 -84.44990 1743 ft 164 kts 271°
2026-05-03 22:47 33.63393 -84.46395 2266 ft 172 kts 273°
2026-05-03 22:47 33.63320 -84.47878 2805 ft 178 kts 271°
2026-05-03 22:47 33.63231 -84.49345 3344 ft 181 kts 270°
2026-05-03 22:47 33.63174 -84.50863 3838 ft 184 kts 276°
2026-05-03 22:48 33.63263 -84.52486 4059 ft 202 kts 278°
2026-05-03 22:48 33.63373 -84.54268 4249 ft 230 kts 277°
2026-05-03 22:48 33.63445 -84.56276 4637 ft 252 kts 275°
2026-05-03 22:48 33.63471 -84.58408 5491 ft 257 kts 274°
2026-05-03 22:49 33.63475 -84.60614 6321 ft 266 kts 273°
2026-05-03 22:49 33.63467 -84.62828 7317 ft 264 kts 271°
2026-05-03 22:49 33.63095 -84.64985 8293 ft 270 kts 248°
2026-05-03 22:49 33.61949 -84.66781 9243 ft 277 kts 222°
2026-05-03 22:50 33.60289 -84.68014 10168 ft 282 kts 213°
2026-05-03 22:50 33.58531 -84.69076 11030 ft 287 kts 203°
2026-05-03 22:50 33.56531 -84.69491 11847 ft 298 kts 184°
2026-05-03 22:50 33.54438 -84.69181 12610 ft 307 kts 175°
2026-05-03 22:51 33.52317 -84.68752 13398 ft 311 kts 176°
2026-05-03 22:51 33.50890 -84.68470 13747 ft 315 kts 176°
2026-05-03 22:51 33.48724 -84.68049 13939 ft 316 kts 176°
2026-05-03 22:51 33.46555 -84.67635 13989 ft 316 kts 177°
2026-05-03 22:52 33.44386 -84.67225 13976 ft 315 kts 176°
2026-05-03 22:52 33.42256 -84.66436 14110 ft 328 kts 158°
2026-05-03 22:52 33.40370 -84.64833 14698 ft 339 kts 140°
2026-05-03 22:52 33.38666 -84.62813 15144 ft 354 kts 140°
2026-05-03 22:53 33.36856 -84.60680 15347 ft 374 kts 140°
2026-05-03 22:53 33.34953 -84.58441 15574 ft 392 kts 140°
2026-05-03 22:53 33.32991 -84.56125 16101 ft 400 kts 141°
2026-05-03 22:53 33.30972 -84.53734 16719 ft 405 kts 141°
2026-05-03 22:54 33.28955 -84.51350 17339 ft 410 kts 142°
2026-05-03 22:54 33.26929 -84.48957 17941 ft 415 kts 143°
2026-05-03 22:54 33.24848 -84.46503 18522 ft 420 kts 143°
2026-05-03 22:54 33.22762 -84.44047 19088 ft 423 kts 144°
2026-05-03 22:55 33.20657 -84.41570 19708 ft 425 kts 144°
2026-05-03 22:55 33.18509 -84.39046 20243 ft 429 kts 144°
2026-05-03 22:55 33.16377 -84.36544 20807 ft 432 kts 145°
2026-05-03 22:55 33.14257 -84.34057 21351 ft 435 kts 145°
2026-05-03 22:56 33.12082 -84.31510 21864 ft 439 kts 146°
2026-05-03 22:56 33.09896 -84.28951 22392 ft 442 kts 146°
2026-05-03 22:56 33.07690 -84.26369 22931 ft 445 kts 146°
2026-05-03 22:56 33.05450 -84.23750 23441 ft 448 kts 147°
2026-05-03 22:57 33.03217 -84.21142 23920 ft 451 kts 147°
2026-05-03 22:57 33.00875 -84.18704 24366 ft 441 kts 156°
2026-05-03 22:57 32.98350 -84.16819 24781 ft 428 kts 166°
2026-05-03 22:57 32.95625 -84.15442 25222 ft 415 kts 174°
2026-05-03 22:58 32.92880 -84.14336 25641 ft 418 kts 174°
2026-05-03 22:58 32.90118 -84.13213 26044 ft 420 kts 174°
2026-05-03 22:58 32.87345 -84.12077 26457 ft 423 kts 174°
2026-05-03 22:58 32.84558 -84.10932 26865 ft 425 kts 174°
2026-05-03 22:59 32.81757 -84.09781 27260 ft 427 kts 174°
2026-05-03 22:59 32.78937 -84.08624 27632 ft 429 kts 174°
2026-05-03 22:59 32.76123 -84.07468 28014 ft 431 kts 174°
2026-05-03 22:59 32.73266 -84.06296 28361 ft 433 kts 174°
2026-05-03 23:00 32.70404 -84.05124 28692 ft 436 kts 173°
2026-05-03 23:00 32.67526 -84.03946 29036 ft 437 kts 174°
2026-05-03 23:00 32.64645 -84.02766 29379 ft 439 kts 174°
2026-05-03 23:00 32.61750 -84.01582 29700 ft 441 kts 173°
2026-05-03 23:01 32.58874 -84.00406 30033 ft 443 kts 174°
2026-05-03 23:01 32.55914 -83.99197 30347 ft 445 kts 174°
2026-05-03 23:01 32.52980 -83.97999 30631 ft 447 kts 174°
2026-05-03 23:01 32.50032 -83.96796 30906 ft 449 kts 174°
2026-05-03 23:02 32.47113 -83.95606 31185 ft 450 kts 174°
2026-05-03 23:02 32.44107 -83.94379 31510 ft 451 kts 174°
2026-05-03 23:02 32.41185 -83.93187 31856 ft 450 kts 174°
2026-05-03 23:02 32.38218 -83.92061 32215 ft 442 kts 178°
2026-05-03 23:03 32.35250 -83.91298 32554 ft 431 kts 184°
2026-05-03 23:03 32.32314 -83.90907 32886 ft 421 kts 189°
2026-05-03 23:03 32.29382 -83.90685 33243 ft 420 kts 189°
2026-05-03 23:03 32.26459 -83.90457 33542 ft 420 kts 189°
2026-05-03 23:04 32.23532 -83.90222 33827 ft 420 kts 189°
2026-05-03 23:04 32.20641 -83.89986 34124 ft 419 kts 189°
2026-05-03 23:04 32.17729 -83.89746 34353 ft 420 kts 189°
2026-05-03 23:04 32.14809 -83.89503 34619 ft 419 kts 189°
2026-05-03 23:05 32.11908 -83.89262 34872 ft 418 kts 189°
2026-05-03 23:05 32.09004 -83.89021 35126 ft 417 kts 189°
2026-05-03 23:05 32.06079 -83.88779 35356 ft 416 kts 189°
2026-05-03 23:05 32.03185 -83.88540 35600 ft 415 kts 189°
2026-05-03 23:06 32.00351 -83.88306 35820 ft 415 kts 189°
2026-05-03 23:06 31.97434 -83.88065 36043 ft 414 kts 189°
2026-05-03 23:06 31.94586 -83.87831 36241 ft 414 kts 189°
2026-05-03 23:06 31.91717 -83.87594 36454 ft 413 kts 189°
2026-05-03 23:07 31.88813 -83.87355 36661 ft 413 kts 189°
2026-05-03 23:07 31.85987 -83.87122 36854 ft 412 kts 189°
2026-05-03 23:07 31.83087 -83.86884 37027 ft 412 kts 189°
2026-05-03 23:07 31.80264 -83.86652 37219 ft 411 kts 189°
2026-05-03 23:08 31.77373 -83.86415 37380 ft 411 kts 189°
2026-05-03 23:08 31.75482 -83.86259 37495 ft 411 kts 189°
2026-05-03 23:08 31.73600 -83.86105 37612 ft 411 kts 189°
2026-05-03 23:08 31.69748 -83.85316 37770 ft 436 kts 175°
2026-05-03 23:09 31.63023 -83.81722 38073 ft 452 kts 168°
2026-05-03 23:09 31.60189 -83.80108 38205 ft 452 kts 168°
2026-05-03 23:09 31.57355 -83.78493 38343 ft 452 kts 168°
2026-05-03 23:10 31.54528 -83.76882 38470 ft 452 kts 168°
2026-05-03 23:10 31.51697 -83.75275 38595 ft 452 kts 168°
2026-05-03 23:10 31.48872 -83.73673 38696 ft 452 kts 168°
2026-05-03 23:10 31.46044 -83.72070 38802 ft 452 kts 168°
2026-05-03 23:11 31.43216 -83.70469 38880 ft 452 kts 168°
2026-05-03 23:11 31.37551 -83.67263 39017 ft 452 kts 168°
2026-05-03 23:12 31.31877 -83.64055 39113 ft 453 kts 168°
2026-05-03 23:12 31.26201 -83.60851 39116 ft 452 kts 168°
2026-05-03 23:13 31.20538 -83.57657 39117 ft 451 kts 168°
2026-05-03 23:13 31.14951 -83.54496 39116 ft 437 kts 169°
2026-05-03 23:14 31.09444 -83.51413 39122 ft 441 kts 169°
2026-05-03 23:14 31.03874 -83.48296 39112 ft 446 kts 168°
2026-05-03 23:15 30.98249 -83.45144 39105 ft 450 kts 168°
2026-05-03 23:15 30.92578 -83.41967 39117 ft 454 kts 168°
2026-05-03 23:16 30.86892 -83.38781 39111 ft 453 kts 168°
2026-05-03 23:16 30.81156 -83.35576 39108 ft 454 kts 168°
2026-05-03 23:17 30.76409 -83.33137 39108 ft 439 kts 176°
2026-05-03 23:17 30.73499 -83.32304 39108 ft 423 kts 185°
2026-05-03 23:17 30.69692 -83.32004 39108 ft 404 kts 195°
2026-05-03 23:18 30.65160 -83.32771 39119 ft 385 kts 207°
2026-05-03 23:18 30.60230 -83.34890 39115 ft 375 kts 213°
2026-05-03 23:18 30.57744 -83.35878 39115 ft 386 kts 204°
2026-05-03 23:19 30.55006 -83.36227 39122 ft 405 kts 194°
2026-05-03 23:19 30.49291 -83.36120 39119 ft 411 kts 192°
2026-05-03 23:20 30.43579 -83.35958 39122 ft 410 kts 192°
2026-05-03 23:20 30.37871 -83.35855 39120 ft 410 kts 193°
2026-05-03 23:21 30.32128 -83.35462 39114 ft 421 kts 186°
2026-05-03 23:21 30.26380 -83.35024 39102 ft 408 kts 193°
2026-05-03 23:22 30.18055 -83.35048 39102 ft 407 kts 193°
2026-05-03 23:22 30.12340 -83.35017 39091 ft 408 kts 193°
2026-05-03 23:23 30.06676 -83.34965 39094 ft 408 kts 193°
2026-05-03 23:23 30.00900 -83.34288 39085 ft 437 kts 176°
2026-05-03 23:24 29.95104 -83.31916 39099 ft 444 kts 173°
2026-05-03 23:24 29.89299 -83.29433 39095 ft 444 kts 174°
2026-05-03 23:25 29.83494 -83.27011 39091 ft 443 kts 174°
2026-05-03 23:25 29.77681 -83.24612 39089 ft 444 kts 174°
2026-05-03 23:26 29.71879 -83.22223 39089 ft 444 kts 174°
2026-05-03 23:26 29.66026 -83.19815 39090 ft 445 kts 174°
2026-05-03 23:27 29.60193 -83.17418 39092 ft 445 kts 174°
2026-05-03 23:27 29.54355 -83.15021 39091 ft 446 kts 174°
2026-05-03 23:28 29.48514 -83.12626 39091 ft 446 kts 174°
2026-05-03 23:28 29.42673 -83.10232 39086 ft 444 kts 174°
2026-05-03 23:29 29.36861 -83.07855 39092 ft 444 kts 174°
2026-05-03 23:29 29.31052 -83.05483 39081 ft 443 kts 174°
2026-05-03 23:30 29.25242 -83.03113 39085 ft 443 kts 174°
2026-05-03 23:30 29.19446 -83.00751 39080 ft 442 kts 174°
2026-05-03 23:31 29.13656 -82.98394 39082 ft 441 kts 174°
2026-05-03 23:31 29.07870 -82.96041 39071 ft 440 kts 174°
2026-05-03 23:32 29.02094 -82.93697 39075 ft 440 kts 174°
2026-05-03 23:32 28.96331 -82.91359 39066 ft 439 kts 174°
2026-05-03 23:33 28.90565 -82.89024 39069 ft 439 kts 174°
2026-05-03 23:33 28.84804 -82.86693 39065 ft 439 kts 174°
2026-05-03 23:34 28.79055 -82.84370 39065 ft 439 kts 174°
2026-05-03 23:34 28.73296 -82.82045 39061 ft 439 kts 174°
2026-05-03 23:35 28.67537 -82.79723 39067 ft 439 kts 174°
2026-05-03 23:35 28.61712 -82.77377 39059 ft 439 kts 174°
2026-05-03 23:36 28.56017 -82.75086 39058 ft 439 kts 174°
2026-05-03 23:36 28.50252 -82.72770 39057 ft 439 kts 174°
2026-05-03 23:37 28.44490 -82.70458 39056 ft 439 kts 174°
2026-05-03 23:37 28.38715 -82.68143 39053 ft 440 kts 174°
2026-05-03 23:38 28.32937 -82.65830 39063 ft 441 kts 174°
2026-05-03 23:38 28.27147 -82.63514 39063 ft 441 kts 174°
2026-05-03 23:39 28.21357 -82.61201 39060 ft 441 kts 174°
2026-05-03 23:39 28.15556 -82.58887 39060 ft 442 kts 174°
2026-05-03 23:40 28.09706 -82.56556 39061 ft 442 kts 174°
2026-05-03 23:40 28.03861 -82.54229 39058 ft 443 kts 174°
2026-05-03 23:41 27.98040 -82.51932 39065 ft 441 kts 175°
2026-05-03 23:41 27.92193 -82.49866 39043 ft 437 kts 176°
2026-05-03 23:42 27.86401 -82.47849 39107 ft 438 kts 177°
2026-05-03 23:42 27.80642 -82.45802 39043 ft 428 kts 177°
2026-05-03 23:43 27.74933 -82.43792 39042 ft 432 kts 177°
2026-05-03 23:43 27.69185 -82.41763 39045 ft 432 kts 177°
2026-05-03 23:44 27.63410 -82.39720 39046 ft 432 kts 177°
2026-05-03 23:44 27.57701 -82.37705 39052 ft 433 kts 177°
2026-05-03 23:45 27.51897 -82.35659 39053 ft 434 kts 177°
2026-05-03 23:45 27.46145 -82.33633 39055 ft 434 kts 176°
2026-05-03 23:46 27.41342 -82.31943 39057 ft 435 kts 176°
2026-05-03 23:46 27.35615 -82.29325 39055 ft 456 kts 166°
2026-05-03 23:47 27.29943 -82.25740 39047 ft 468 kts 163°
2026-05-03 23:47 27.24294 -82.22138 39052 ft 471 kts 163°
2026-05-03 23:48 27.18555 -82.18494 39052 ft 470 kts 163°
2026-05-03 23:48 27.12896 -82.14909 39002 ft 468 kts 163°
2026-05-03 23:49 27.10000 -82.13073 38460 ft 466 kts 163°
2026-05-03 23:49 27.07201 -82.11306 37408 ft 468 kts 163°
2026-05-03 23:49 27.04397 -82.09540 36329 ft 469 kts 163°
2026-05-03 23:49 27.01532 -82.07734 35307 ft 470 kts 162°
2026-05-03 23:50 26.98739 -82.05916 34627 ft 473 kts 159°
2026-05-03 23:50 26.96011 -82.03740 33833 ft 485 kts 152°
2026-05-03 23:50 26.93461 -82.01198 33015 ft 495 kts 145°
2026-05-03 23:50 26.91040 -81.98342 32172 ft 500 kts 142°
2026-05-03 23:51 26.88644 -81.95487 31334 ft 501 kts 142°
2026-05-03 23:51 26.86241 -81.92641 30475 ft 504 kts 142°
2026-05-03 23:51 26.83828 -81.89791 29527 ft 507 kts 141°
2026-05-03 23:51 26.81416 -81.86940 28891 ft 501 kts 141°
2026-05-03 23:52 26.79049 -81.84139 28467 ft 491 kts 141°
2026-05-03 23:52 26.76713 -81.81380 27824 ft 486 kts 141°
2026-05-03 23:52 26.74347 -81.78612 27202 ft 481 kts 142°
2026-05-03 23:52 26.72034 -81.75925 26590 ft 477 kts 142°
2026-05-03 23:53 26.69743 -81.73268 25983 ft 473 kts 142°
2026-05-03 23:53 26.67460 -81.70623 25347 ft 471 kts 142°
2026-05-03 23:53 26.65198 -81.67998 24735 ft 468 kts 142°
2026-05-03 23:53 26.62992 -81.65350 24277 ft 465 kts 137°
2026-05-03 23:54 26.61035 -81.62498 23905 ft 459 kts 134°
2026-05-03 23:54 26.59117 -81.59632 23008 ft 463 kts 134°
2026-05-03 23:54 26.57173 -81.56747 22267 ft 462 kts 134°
2026-05-03 23:54 26.55232 -81.53863 21699 ft 457 kts 133°
2026-05-03 23:55 26.53331 -81.51039 21100 ft 453 kts 133°
2026-05-03 23:55 26.51467 -81.48274 20504 ft 449 kts 133°
2026-05-03 23:55 26.49571 -81.45463 19907 ft 446 kts 133°
2026-05-03 23:55 26.47723 -81.42724 19338 ft 442 kts 133°
2026-05-03 23:56 26.45824 -81.39912 18755 ft 438 kts 133°
2026-05-03 23:56 26.43906 -81.37072 18142 ft 434 kts 133°
2026-05-03 23:56 26.42187 -81.34529 17541 ft 430 kts 132°
2026-05-03 23:56 26.40379 -81.31874 16918 ft 425 kts 133°
2026-05-03 23:57 26.38529 -81.29352 16307 ft 419 kts 135°
2026-05-03 23:57 26.36653 -81.26886 15706 ft 415 kts 135°
2026-05-03 23:57 26.34769 -81.24417 15134 ft 411 kts 135°
2026-05-03 23:57 26.32950 -81.22018 14626 ft 408 kts 135°
2026-05-03 23:58 26.31128 -81.19601 14136 ft 405 kts 134°
2026-05-03 23:58 26.29304 -81.17170 13546 ft 402 kts 134°
2026-05-03 23:58 26.27532 -81.14814 12981 ft 398 kts 134°
2026-05-03 23:58 26.25677 -81.12370 12389 ft 393 kts 134°
2026-05-03 23:59 26.23975 -81.10136 11881 ft 390 kts 134°
2026-05-03 23:59 26.22235 -81.07850 11447 ft 386 kts 134°
2026-05-03 23:59 26.20511 -81.05585 11117 ft 377 kts 134°
2026-05-03 23:59 26.18854 -81.03403 11018 ft 361 kts 134°
2026-05-04 00:00 26.17245 -81.01287 11006 ft 361 kts 134°
2026-05-04 00:00 26.15661 -80.99095 11002 ft 365 kts 126°
2026-05-04 00:00 26.14543 -80.96571 10955 ft 362 kts 110°
2026-05-04 00:00 26.13997 -80.93867 10821 ft 348 kts 101°
2026-05-04 00:01 26.13590 -80.91300 10659 ft 330 kts 103°
2026-05-04 00:01 26.12850 -80.88929 10308 ft 314 kts 125°
2026-05-04 00:01 26.11434 -80.87169 9730 ft 303 kts 150°
2026-05-04 00:01 26.09551 -80.86129 9114 ft 294 kts 163°
2026-05-04 00:02 26.07686 -80.85310 8560 ft 293 kts 163°
2026-05-04 00:02 26.05786 -80.84489 8195 ft 291 kts 163°
2026-05-04 00:02 26.03906 -80.83677 7815 ft 289 kts 163°
2026-05-04 00:02 26.02027 -80.82872 7430 ft 287 kts 163°
2026-05-04 00:03 26.00219 -80.82011 7058 ft 289 kts 151°
2026-05-04 00:03 25.98764 -80.80453 6677 ft 294 kts 125°
2026-05-04 00:03 25.98022 -80.78190 6301 ft 296 kts 96°
2026-05-04 00:03 25.98195 -80.76064 6042 ft 290 kts 72°
2026-05-04 00:04 25.98890 -80.73994 5887 ft 274 kts 65°
2026-05-04 00:04 25.99629 -80.72124 5756 ft 257 kts 65°
2026-05-04 00:04 26.00319 -80.70328 5493 ft 248 kts 66°
2026-05-04 00:04 26.00773 -80.69071 5229 ft 245 kts 68°
2026-05-04 00:05 26.01542 -80.66798 5022 ft 243 kts 69°
2026-05-04 00:05 26.02129 -80.64994 4992 ft 242 kts 70°
2026-05-04 00:05 26.02686 -80.63251 5006 ft 240 kts 70°
2026-05-04 00:05 26.03248 -80.61481 5000 ft 243 kts 70°
2026-05-04 00:06 26.03812 -80.59707 5002 ft 242 kts 69°
2026-05-04 00:06 26.04371 -80.57947 5003 ft 242 kts 70°
2026-05-04 00:06 26.04931 -80.56183 5002 ft 242 kts 70°
2026-05-04 00:06 26.05495 -80.54410 5003 ft 243 kts 70°
2026-05-04 00:07 26.06061 -80.52627 5002 ft 243 kts 70°
2026-05-04 00:07 26.06583 -80.50868 4959 ft 241 kts 76°
2026-05-04 00:07 26.06797 -80.49027 4899 ft 238 kts 90°
2026-05-04 00:07 26.06804 -80.47210 4755 ft 226 kts 90°
2026-05-04 00:08 26.06820 -80.45528 4608 ft 213 kts 90°
2026-05-04 00:08 26.06835 -80.44434 4429 ft 208 kts 89°
2026-05-04 00:08 26.06857 -80.42826 4204 ft 205 kts 89°
2026-05-04 00:08 26.06882 -80.41244 3972 ft 194 kts 90°
2026-05-04 00:09 26.06863 -80.39808 3582 ft 186 kts 94°
2026-05-04 00:09 26.06774 -80.38300 3513 ft 199 kts 93°
2026-05-04 00:09 26.06733 -80.36758 3422 ft 199 kts 91°
2026-05-04 00:09 26.06728 -80.36237 3391 ft 198 kts 91°